Sierra Vista, AZ

8:52 PM MST on December 14, 2017 (GMT -0700)
Sierra Vista Municipal-Libby Army Air Field

Weather History for KFHU - October, 2013

Change the Weather History Date:

Tuesday, October 29, 2013

  Actual Average Record
Temperature  
Mean Temperature 64 °F -  
Max Temperature 73 °F 70 °F 87 °F (2001)
Min Temperature 53 °F 48 °F 32 °F (2011)
Degree Days  
Heating Degree Days 1    
Growing Degree Days 14 (Base 50)    
Moisture  
Dew Point 29 °F    
Average Humidity 29    
Maximum Humidity 58    
Minimum Humidity 15    
Precipitation  
Precipitation 0.00 in - - ()
Sea Level Pressure  
Sea Level Pressure 29.87 in    
Wind  
Wind Speed 12 mph (SW)    
Max Wind Speed 23 mph    
Max Gust Speed 31 mph    
Visibility 10 miles    
Events      
Averages and records for this station are not official NWS values.
T = Trace of Precipitation, MM = Missing Value Source: NWS Daily Summary

Daily Weather History Graph

Daily Weather History Graph

Search for Another Location

Airport or City:

Trip Planner

Search our weather history database for the weather conditions in past years. The results will help you decide how hot, cold, wet, or windy it might be!

Date:

Astronomy

Oct. 29, 2013 Rise Set
Actual Time 6:35 AM MST 5:34 PM MST
Civil Twilight 6:10 AM MST 5:59 PM MST
Nautical Twilight 5:41 AM MST 6:28 PM MST
Astronomical Twilight 5:13 AM MST 6:56 PM MST
Moon 1:46 AM MST (10/29) 2:34 PM MST (10/29)
Length of Visible Light 11h 49m
Length of Day
10h 59m
Waning Crescent, 24% of the Moon is Illuminated
Oct 29
Waning Crescent
Nov 3
New
Nov 9
First Quarter
Nov 17
Full
Nov 25
Last Quarter

Hourly Weather History & Observations

Time (MST) Temp. Dew Point Humidity Pressure Visibility Wind Dir Wind Speed Gust Speed Precip Events Conditions
12:55 AM 59.0 °F 28.4 °F 31% 29.88 in 10.0 mi SSW 9.2 mph - N/A   Mostly Cloudy
1:55 AM 57.2 °F 28.4 °F 33% 29.90 in 10.0 mi SSW 10.4 mph - N/A   Scattered Clouds
2:55 AM 59.0 °F 32.0 °F 36% 29.89 in 10.0 mi SSW 12.7 mph - N/A   Scattered Clouds
3:55 AM 59.0 °F 32.0 °F 36% 29.87 in 10.0 mi SW 17.3 mph 23.0 mph N/A   Scattered Clouds
4:55 AM 57.2 °F 30.2 °F 36% 29.88 in 10.0 mi SSW 15.0 mph 19.6 mph N/A   Mostly Cloudy
5:55 AM 57.2 °F 28.4 °F 33% 29.89 in 10.0 mi South 8.1 mph 17.3 mph N/A   Mostly Cloudy
6:55 AM 55.4 °F 26.6 °F 33% 29.92 in 10.0 mi Variable 6.9 mph - N/A   Mostly Cloudy
7:55 AM 57.2 °F 28.4 °F 33% 29.94 in 10.0 mi NE 3.5 mph - N/A   Mostly Cloudy
8:55 AM 60.8 °F 28.4 °F 29% 29.94 in 10.0 mi NNE 9.2 mph - N/A   Mostly Cloudy
9:55 AM 64.4 °F 28.4 °F 26% 29.94 in 10.0 mi SSW 15.0 mph 23.0 mph N/A   Mostly Cloudy
10:55 AM 69.8 °F 30.2 °F 23% 29.91 in 10.0 mi SSW 23.0 mph 29.9 mph N/A   Mostly Cloudy
11:55 AM 73.4 °F 28.4 °F 19% 29.87 in 10.0 mi SSW 15.0 mph 28.8 mph N/A   Mostly Cloudy
12:55 PM 73.4 °F 24.8 °F 16% 29.86 in 10.0 mi SSW 18.4 mph 26.5 mph N/A   Scattered Clouds
1:55 PM 73.4 °F 24.8 °F 16% 29.84 in 10.0 mi SSW 20.7 mph 31.1 mph N/A   Scattered Clouds
2:55 PM 73.4 °F 23.0 °F 15% 29.79 in 10.0 mi SW 17.3 mph 29.9 mph N/A   Mostly Cloudy
3:55 PM 71.6 °F 26.6 °F 19% 29.79 in 10.0 mi SW 19.6 mph 27.6 mph N/A   Mostly Cloudy
4:55 PM 69.8 °F 21.2 °F 16% 29.81 in 10.0 mi SW 9.2 mph 24.2 mph N/A   Scattered Clouds
5:55 PM 66.2 °F 23.0 °F 19% 29.82 in 10.0 mi SW 16.1 mph - N/A   Partly Cloudy
6:55 PM 64.4 °F 26.6 °F 24% 29.84 in 10.0 mi SW 18.4 mph - N/A   Partly Cloudy
7:55 PM 62.6 °F 26.6 °F 26% 29.85 in 10.0 mi SW 13.8 mph - N/A   Partly Cloudy
8:55 PM 60.8 °F 32.0 °F 34% 29.86 in 10.0 mi West 13.8 mph 18.4 mph N/A   Mostly Cloudy
9:55 PM 60.8 °F 39.2 °F 45% 29.88 in 10.0 mi WSW 16.1 mph - N/A   Partly Cloudy
10:55 PM 57.2 °F 39.2 °F 51% 29.88 in 10.0 mi NW 5.8 mph 16.1 mph N/A   Partly Cloudy
11:55 PM 53.6 °F 39.2 °F 58% 29.86 in 10.0 mi SW 8.1 mph - N/A   Partly Cloudy